Location: ???????
(55.4231°N, 38.5570°E)
Time: 13:09:07
(UTC+00:00)

SL-4 R/B - Pass Details

Date: 05 August 2024
Orbit: 409 x 589 km, 51.6° (Epoch: 18 September)

Event Time Altitude Azimuth Distance (km) Brightness Sun altitude
Exits shadow 00:31:19 - 268° (W) 2,299 4.8 -8.4°
Reaches altitude 10° 00:32:51 10° 263° (W) 1,698 4.1 -8.2°
Maximum altitude 00:36:27 41° 193° (SSW) 703 2.2 -7.9°
Drops below altitude 10° 00:39:51 10° 121° (ESE) 1,592 4.6 -7.5°
Sets 00:41:59 0° 114° (ESE) 2,434 5.6 -7.3°
